テナグラ彗星

C/2013 G9 ( Tenagra )

English version
Home page
Updated on November 15, 2021

---------------------------------------------------------------------

・ プロフィール

発見日 2013年4月15日
発見光度 19.6等
発見者 M. Schwartz and P. R. Holvorcem (Tenagra II, near Nogales, AZ, U.S.A.)

・ 写真集

・ 軌道要素

Epoch 2015 Jan. 18.0 TT = JDT 2457040.5
T 2015 Jan. 14.76185 TT                                 MPCW
q   5.3374868            (2000.0)            P               Q
z  -0.0001664      Peri.  204.94556     -0.94096454     -0.09714368
 +/-0.0000006      Node    35.68758     -0.13078081     +0.98788426
e   1.0008883      Incl.  146.23036     -0.31222125     -0.12102811
From 427 observations 2013 Apr. 9-2016 Apr. 6, mean residual 0".5.

・ 星図

・ 光度変化

        m1 = -1.8 + 5 logΔ + 20.0 log r(t + 80)

---------------------------------------------------------------------

軌道要素はM.P.E.C. 2016-K18に掲載されたものです。
星図はステラナビゲータ Ver.8 (アストロアーツ) で作成したものです。
光度グラフはComet for Windowsで作成したものです。

---------------------------------------------------------------------

Copyright(C) Seiichi Yoshida (comet@aerith.net). All rights reserved.